sat.trackr.live / text

‹ back to catalog

EZIE-C

NORAD 63249 · 2025-052AR

PAYLOAD ACTIVE UNKNOWN

§ Identity

Operator
Country
US
Launch date
2025-03-15
Launch site
AFWTR
Launch vehicle
Mass (kg)
RCS (m²)

External: N2YO · Heavens-Above · Gunter

§ Orbital elements

Epoch: 2026-05-24T23:35:58.545600Z

Period
96.19 min
Inclination
97.6906°
Eccentricity
0.0001484
Mean motion
14.97089281 rev/d
Perigee alt
574.9 km
Apogee alt
576.9 km
Semi-major
6,954.0 km
B*
3.6623e-4
RAAN
37.4175°
Arg perigee
331.0339°
Mean anomaly
29.0800°
Rev number
6,519

§ Raw data

EZIE-C1 63249U 25052AR  26144.98331650  .00004167  00000+0  36623-3 0  99902 63249  97.6906  37.4175 0001484 331.0339  29.0800 14.97089281 65198

JSON: /api/v1/satellites/63249 · /tle

For live sub-satellite position, see the globe view (requires WebGL).

§ Visibility from observer

Set your observer location to see the next 7 days of passes ≥ 10°. The values pass through the URL so the page stays shareable.

No JS? Fill the form by hand. The geolocation button needs JavaScript.

§ Radio — SatNOGS DB

ModeDescriptionDownlinkUplink
FM Mode S - Transmitter 1 2.211 GHz
FM Mode S - Transmitter 2 2.218 GHz
FM Mode S - Transmitter 3 2.268 GHz

3 transmitters · refreshed weekly from db.satnogs.org